Find Starlink 1958

NORAD ID: 47559 Int'l Des: 2021-009 Owner: SPXS Country: US Constellation: starlink operational
LEOCIRCULAR

リアルタイム位置

3D地球を読み込み中...

Starlink 1958について

説明を読み込み中...

次回通過

Passes for default location (London). Set your location on the main map for personalized predictions.

高度履歴

Loading altitude history...

軌道要素

1 47559U 21009M 26120.16667823 .00175897 00000-0 92995-3 0 9996
2 47559 53.0384 65.7223 0009532 116.2272 268.9321 15.79521784 6028
Epoch: Apr 30, 2026 • Age: 6 hours

現在のステータス

高度 354.2 km
速度 7.69 km/s
衛星直下点 -47.62°S, 5.81°E
打ち上げ日 Feb 4, 2021
運用期間 5.2 years
タイプ internet

技術仕様

分類 Payload
質量 260.00 kg
乾燥質量 248.00 kg
総質量 260.00 kg
長さ 0.20 m
直径 2.80 m
スパン 9.00 m
形状 Box + pan
製造者 SPXS
バスタイプ Starlink
フェーズステータス In Orbit
所有者/国 SPXS/US

Most Searched